www.pogodaiklimat.ru

Погода и климат >> Архив погоды >> Мозамбик >> Beira


ПОГОДА в Beira

  • Прогноз погоды в Beira
  • Монитор погоды в Beira
  • Климат города

АРХИВ ПОГОДЫ в Beira

Время (UTC), дата Ветер
(напр.,м/с)
 
Видим.   Явления Облачность Т
(С)
Тd
(С)
f
(%)
Тe
(С)
Тes
(С)
Комфортность P
(гПа)
Po
(гПа)
Тmin
(С)
Tmax
(С)
R
(мм)
R24
(мм)
S
(см)
06 23.04 0 10 км в посл. час морось 9/9 300 м
[Cu Sc]
+21.8 +20.8 94 1017.1 1017.0 +21.8 36
09 23.04 0 10 км в посл. час морось 9/9 300 м
[Cu Sc]
+23.6 +21.5 88 1016.4 1016.0
12 23.04 0 15 км {морось} 8/8 300 м
[Cu Sc]
+26.4 +23.5 84 1014.6 1015.0 3
15 23.04 0 15 км 5/5 300 м
[Cu Sc Ci fib]
+25.7 +22.0 80 1014.8 1015.0
18 23.04 0 15 км 3/3 300 м
[Cu med, cong]
+24.5 +22.4 88 1015.9 1016.0 +27.2 3
21 23.04 0 15 км 1/1 600 м
[Cu med, cong]
+24.0 +22.6 92 1016.7 1017.0
03 24.04 0 15 км в посл. час морось 8/8 300 м
[Cu Sc]
+22.6 +21.8 95 1015.5 1016.0
12 24.04 0 6000 м слабый дождь {морось} 10/9 300 м
[Cu Sc Ac As]
+20.0 +17.0 83 1018.0 1018.0 17
15 24.04 0 15 км {дождь} 10/9 300 м
[Cu Sc Ac As]
+20.2 +16.9 81 1019.0 1019.0
18 24.04 0 6000 м слабый дождь 10/8 300 м
[Cu Sc Ac As]
+19.8 +18.5 92 1019.7 1020.0 +24.0 19
21 24.04 0 10 км {дождь, морось} 10/8 300 м
[Cu Sc Ac As]
+19.0 +18.5 97 1019.5 1020.0
00 25.04 0 15 км 8/5 300 м
[Cu Sc Ac As]
+18.8 +18.5 98 1017.9 1018.0 2
03 25.04 0 15 км 4/4 300 м
[Cu Sc]
+19.2 +17.4 89 1018.7 1019.0
06 25.04 0 30 км 4/4 600 м
[Cu Sc]
+20.6 +18.1 86 1020.5 1021.0 +18.5 19
09 25.04 0 30 км 1/1 600 м
[Cu Sc]
+25.0 +19.2 70 1020.5 1021.0
12 25.04 0 30 км 3/3 600 м
[Cu Sc]
+26.4 +21.7 75 1018.4 1018.0
18 25.04 0 25 км 3/3 600 м
[Cu Sc]
+24.0 +21.2 84 1019.6 1020.0 +26.6
21 25.04 0 15 км 3/3 600 м
[Cu Sc]
+23.4 +21.3 88 1020.4 1020.0
00 26.04 0 15 км 3/3 300 м
[Cu Sc]
+22.8 +19.8 83 1019.2 1019.0
03 26.04 0 15 км {морось} 6/6 300 м
[Cu Sc]
+21.8 +20.7 93 1018.7 1019.0
06 26.04 0 9000 м слабая морось 9/9 300 м
[Cu Sc]
+21.0 +19.7 92 1020.8 1021.0 +20.6 3
09 26.04 0 15 км {морось} 6/3 300 м
[Cu Sc Ac trans]
+24.8 +20.9 79 1020.4 1020.0
12 26.04 0 20 км 3/3 600 м
[Cu Sc Ac trans]
+27.0 +20.1 66 1018.6 1019.0
15 26.04 0 20 км 3/3 600 м
[Cu med, cong]
+25.4 +19.1 68 1018.7 1019.0
18 26.04 0 20 км 1/1 600 м
[Cu med, cong]
+24.0 +19.6 76 1020.3 1020.0 +27.0
21 26.04 0 20 км 1/1 600 м
[Cu med, cong]
+23.0 +18.6 76 1020.5 1021.0
00 27.04 0 20 км 1/1 600 м
[Cu med, cong]
+22.6 +18.8 79 1019.5 1020.0
03 27.04 0 20 км 5/5 600 м
[Cb cap]
+21.8 +20.6 93 1020.4 1020.0
06 27.04 0 20 км 1/1 600 м
[Cu Sc]
+23.2 +20.2 83 1021.6 1022.0 +20.6
09 27.04 0 20 км 1/1 600 м
[Cu med, cong]
+25.8 +20.4 72 1022.0 1022.0
12 27.04 0 20 км 1/1 600 м
[Cu med, cong]
+26.6 +21.4 73 1019.9 1020.0
15 27.04 0 20 км 1/1 600 м
[Cu med, cong]
+25.9 +20.4 72 1019.6 1020.0
18 27.04 0 20 км 1/1 600 м
[Cu med, cong]
+23.6 +19.6 78 1020.5 1021.0 +26.8
09 28.04 0 15 км 4/4 300 м
[Cu Sc]
+24.7 +21.5 82 1021.7 1022.0
18 28.04 0 15 км в посл. час морось 5/5 300 м
[Cu Sc]
+23.6 +21.2 86 1020.5 1021.0 +27.6 1
12 29.04 0 15 км в посл. час морось 8/8 300 м
[Cu Sc]
+26.8 +21.5 73 1018.2 1018.0 0.5
15 29.04 0 20 км 8/8 300 м
[Cu Sc]
+24.7 +20.9 79 1018.1 1018.0

 

Местоположение метеостанции Beira (Мозамбик): широта -19.80 долгота 34.90 высота над уровнем моря 16 м.

В архиве по умолчанию представлена погода в Beira за последнюю неделю. Архивные данные за месяц целиком и за предыдущие месяцы, начиная с января 2011 года, Вы можете получить, выбрав интересующий диапазон дат из раскрывающегося списка и нажав кнопку "Ввод!".

Внимание! Время в таблицах - всемирное. Для получения местного времени необходимо прибавить поправку, которая в Beira равна 2 ч.

Смотрите также архив погоды в соседних городах и на ближайших метеорологических станциях:

Погода в Chimoio (Мозамбик) (168 км)
Погода в Caia (Мозамбик) (224 км)
Погода в Chipinge (Зимбабве) (243 км)
Погода в Mukandi (Зимбабве) (246 км)
Погода в Vilanculos (Мозамбик) (249 км)
Погода в Catandica (Мозамбик) (265 км)
Погода в Massangena (Мозамбик) (280 км)
Погода в Wyanga (Зимбабве) (282 км)
Погода в Quelimane (Мозамбик) (298 км)
Погода в Rusape (Зимбабве) (323 км)

Пояснения к столбцам:

Ветер - указаны скорость ветра в м/с - средняя за 10 мин, порывы в срок и между сроками (в фигурных скобках) и направление, откуда дует ветер: С - северный, СВ - северо-восточный, В - восточный, ЮВ - юго-восточный, Ю - южный, ЮЗ - юго-западный, З - западный, СЗ - северо-западный.
Видимость - горизонтальная дальность видимости в метрах или километрах. При видимости от 1 до 10 км при отсутствии осадков обычно наблюдается дымка, при ухудшении видимости до 1 км и менее - туман. В сухую погоду видимость может ухудшаться дымом, пылью или мглою.
Явления - указаны атмосферные явления, наблюдавшиеся в срок или в последний час перед сроком; фигурными скобками обозначены явления, наблюдавшиеся между сроками (за 1-3 часа до срока); квадратными скобками обозначены град или гололедные отложения с указанием их диаметра в мм.
Облачность - указаны через наклонную черту общая и нижняя облачность в баллах и высота нижней границы облаков в метрах; квадратными скобками обозначены формы облаков: Ci - перистые, Cs - перисто-слоистые, Cc - перисто-кучевые, Ac - высококучевые, As - высокослоистые, Sc - слоисто-кучевые, Ns - слоисто-дождевые, Cu - кучевые, Cb - кучево-дождевые. Подробнее классификацию облаков см. в Атласе облаков (PDF).
T - Температура воздуха - температура, измеренная на высоте 2 м над землей.
Td - Температура точки росы - температура, при понижении до которой содержащийся в воздухе водяной пар достигнет насыщения.
f - Относительная влажность воздуха - влажноcть воздуха, измеренная на высоте 2 м над землей.
Te - Эффективная температура - температура, которую ощущает одетый по сезону человек в тени. Характеристика душности погоды. При расчете учитывается влияние влажности воздуха и скорости ветра на теплоощущения человека.
Tes - Эффективная температура на солнце - температура, которую ощущает человек, с поправкой на солнечный нагрев. Характеристика знойности погоды. Зависит от высоты солнца над горизонтом, облачности и скорости ветра. Ночью, в пасмурную погоду, а также при ветре 12 м/с и более поправка равна нулю.
P - Атмосферное давление - приведенное к уровню моря атмосферное давление.
Po - Атмосферное давление - измеренное на уровне метеостанции атмосферное давление.
Tmin - Минимальная температура - минимум температуры воздуха на высоте 2 м над землей.
Tmax - Максимальная температура - максимум температуры воздуха на высоте 2 м над землей.
R - Количество осадков - Количество выпавших осадков за период времени, мм. При наведении курсора мыши на число - период времени, за который выпало указанное количество осадков.
R24 - Количество осадков - Количество выпавших осадков за 24 часа, мм.
S - Снежный покров - Высота снежного покрова, см. При наведении курсора мыши на число - состояние снежного покрова и степень покрытия местности в баллах.